Middlebury State AP, Middlebu, VT

4:20 PM EST on November 12, 2019 (GMT -0500)
Middlebury State AP, Middlebu

Weather History for K6B0 - August, 2019

Change the Weather History Date:

Sunday, August 11, 2019

  Actual Average (KRUT) Record (KRUT)
Temperature  
Mean Temperature 62 °F -  
Max Temperature 75 °F 79 °F 91 °F (1988)
Min Temperature 50 °F 58 °F 47 °F (1948)
Degree Days  
Heating Degree Days 2    
Growing Degree Days 12 (Base 50)    
Moisture  
Dew Point 53 °F    
Average Humidity 75    
Maximum Humidity 99    
Minimum Humidity 44    
Precipitation  
Precipitation 0.00 in - - ()
Sea Level Pressure  
Sea Level Pressure 29.94 in    
Wind  
Wind Speed 2 mph ()    
Max Wind Speed 9 mph    
Max Gust Speed -    
Visibility 10.0 miles    
Events      
Averages and records for this station are not official NWS values.
T = Trace of Precipitation, MM = Missing Value Source: Averaged Metar Reports

Daily Weather History Graph

Daily Weather History Graph

Search for Another Location

Airport or City:

Astronomy

Aug. 11, 2019 Rise Set
Actual Time 5:51 AM EDT 8:03 PM EDT
Civil Twilight 5:19 AM EDT 8:34 PM EDT
Nautical Twilight 4:40 AM EDT 9:13 PM EDT
Astronomical Twilight 3:56 AM EDT 9:56 PM EDT
Moon 5:44 PM EDT (8/11) 2:05 AM EDT (8/11)
Length of Visible Light 15h 14m
Length of Day
14h 11m
Waxing Gibbous, 87% of the Moon is Illuminated
Aug 11
Waxing Gibbous
Aug 15
Full
Aug 23
Last Quarter
Aug 30
New
Sep 5
First Quarter

Hourly Weather History & Observations

Time (EDT) Temp. Dew Point Humidity Pressure Visibility Wind Dir Wind Speed Gust Speed Precip Events Conditions
12:16 AM 51.3 °F 50.9 °F 99% 29.91 in 10.0 mi Calm Calm - N/A   Clear
12:35 AM 50.9 °F 50.4 °F 98% 29.91 in 10.0 mi Calm Calm - N/A   Clear
12:36 AM 50.9 °F 50.4 °F 98% 29.91 in 10.0 mi Calm Calm - N/A   Clear
12:55 AM 51.8 °F 51.1 °F 97% 29.91 in 10.0 mi Calm Calm - N/A   Clear
12:59 AM 51.8 °F 51.1 °F 97% 29.91 in 10.0 mi SE 3.5 mph - N/A   Clear
1:17 AM 50.9 °F 50.2 °F 97% 29.91 in 10.0 mi South 3.5 mph - N/A   Clear
1:36 AM 50.9 °F 50.2 °F 97% 29.91 in 10.0 mi Calm Calm - N/A   Clear
1:55 AM 50.9 °F 50.4 °F 98% 29.91 in 10.0 mi South 3.5 mph - N/A   Clear
1:56 AM 50.9 °F 50.4 °F 98% 29.91 in 10.0 mi South 3.5 mph - N/A   Clear
2:15 AM 51.1 °F 50.0 °F 96% 29.91 in 10.0 mi SSE 3.5 mph - N/A   Clear
2:38 AM 50.5 °F 50.0 °F 98% 29.91 in 10.0 mi Calm Calm - N/A   Clear
2:56 AM 50.5 °F 50.0 °F 98% 29.92 in 10.0 mi Calm Calm - N/A   Clear
3:16 AM 50.7 °F 50.0 °F 97% 29.92 in 10.0 mi SE 3.5 mph - N/A   Clear
3:35 AM 50.4 °F 50.0 °F 99% 29.92 in 10.0 mi Calm Calm - N/A   Clear
3:55 AM 50.2 °F 49.6 °F 98% 29.92 in 10.0 mi Calm Calm - N/A   Clear
4:17 AM 50.0 °F 49.3 °F 97% 29.92 in 10.0 mi Calm Calm - N/A   Clear
4:36 AM 50.7 °F 50.2 °F 98% 29.93 in 10.0 mi Calm Calm - N/A   Clear
4:55 AM 51.1 °F 50.5 °F 98% 29.93 in 10.0 mi Calm Calm - N/A   Clear
4:56 AM 51.1 °F 50.5 °F 98% 29.93 in 10.0 mi Calm Calm - N/A   Clear
5:15 AM 50.5 °F 50.0 °F 98% 29.94 in 10.0 mi Calm Calm - N/A   Clear
5:39 AM 50.2 °F 49.8 °F 99% 29.95 in 10.0 mi Calm Calm - N/A   Clear
5:56 AM 50.0 °F 49.6 °F 99% 29.96 in 10.0 mi Calm Calm - N/A   Clear
6:16 AM 50.4 °F 50.0 °F 99% 29.96 in 10.0 mi Calm Calm - N/A   Clear
6:35 AM 50.2 °F 50.0 °F 99% 29.97 in 10.0 mi Calm Calm - N/A   Clear
6:36 AM 50.2 °F 50.0 °F 99% 29.97 in 10.0 mi Calm Calm - N/A   Clear
6:55 AM 50.9 °F 50.4 °F 98% 29.98 in 10.0 mi Calm Calm - N/A   Clear
6:59 AM 50.9 °F 50.4 °F 98% 29.98 in 10.0 mi Calm Calm - N/A   Clear
7:17 AM 52.2 °F 52.0 °F 99% 29.98 in 10.0 mi Calm Calm - N/A   Clear
7:35 AM 54.1 °F 53.4 °F 97% 29.99 in 10.0 mi Calm Calm - N/A   Clear
7:55 AM 54.7 °F 53.4 °F 96% 29.99 in 10.0 mi Calm Calm - N/A   Clear
7:56 AM 55.0 °F 53.6 °F 95% 29.99 in 10.0 mi Calm Calm - N/A   Clear
8:15 AM 58.1 °F 54.7 °F 88% 29.98 in 10.0 mi South 3.5 mph - N/A   Clear
8:39 AM 60.1 °F 54.7 °F 82% 29.98 in 10.0 mi South 4.6 mph - N/A   Clear
8:56 AM 61.0 °F 54.5 °F 79% 29.98 in 10.0 mi South 4.6 mph - N/A   Clear
9:16 AM 62.2 °F 54.0 °F 74% 29.98 in 10.0 mi South 9.2 mph - N/A   Clear
9:35 AM 63.0 °F 54.3 °F 73% 29.98 in 10.0 mi SSW 5.8 mph - N/A   Clear
9:36 AM 63.1 °F 53.6 °F 71% 29.98 in 10.0 mi SSW 5.8 mph - N/A   Clear
9:55 AM 63.9 °F 54.7 °F 72% 29.98 in 10.0 mi South 5.8 mph - N/A   Clear
9:59 AM 64.0 °F 55.0 °F 73% 29.99 in 10.0 mi South 5.8 mph - N/A   Clear
10:17 AM 64.8 °F 54.0 °F 68% 29.98 in 10.0 mi South 4.6 mph - N/A   Clear
10:35 AM 65.8 °F 54.5 °F 67% 29.98 in 10.0 mi SSW 3.5 mph - N/A   Clear
10:55 AM 66.9 °F 53.6 °F 62% 29.97 in 10.0 mi SW 3.5 mph - N/A   Clear
10:56 AM 67.1 °F 54.1 °F 63% 29.97 in 10.0 mi SW 4.6 mph - N/A   Clear
11:15 AM 67.5 °F 54.5 °F 63% 29.97 in 10.0 mi SSW 3.5 mph - N/A   Clear
11:38 AM 69.3 °F 55.2 °F 61% 29.97 in 10.0 mi Calm Calm - N/A   Clear
11:57 AM 69.4 °F 53.2 °F 56% 29.96 in 10.0 mi Calm Calm - N/A   Scattered Clouds
12:15 PM 70.7 °F 55.4 °F 58% 29.96 in 10.0 mi WSW 5.8 mph - N/A   Scattered Clouds
12:16 PM 70.7 °F 55.4 °F 58% 29.96 in 10.0 mi WSW 4.6 mph - N/A   Scattered Clouds
12:35 PM 70.7 °F 54.9 °F 57% 29.96 in 10.0 mi WNW 5.8 mph - N/A   Clear
12:36 PM 70.9 °F 54.7 °F 56% 29.96 in 10.0 mi NW 4.6 mph - N/A   Clear
12:57 PM 72.0 °F 53.4 °F 52% 29.96 in 10.0 mi Calm Calm - N/A   Scattered Clouds
1:15 PM 73.0 °F 54.1 °F 51% 29.95 in 10.0 mi West 8.1 mph - N/A   Scattered Clouds
1:35 PM 73.2 °F 53.8 °F 50% 29.95 in 10.0 mi NW 3.5 mph - N/A   Clear
1:36 PM 73.2 °F 53.6 °F 50% 29.95 in 10.0 mi NNW 3.5 mph - N/A   Clear
1:55 PM 74.1 °F 53.2 °F 48% 29.94 in 10.0 mi NNW 8.1 mph - N/A   Clear
1:59 PM 73.9 °F 53.4 °F 49% 29.94 in 10.0 mi NNW 8.1 mph - N/A   Clear
2:17 PM 74.5 °F 54.0 °F 49% 29.94 in 10.0 mi NW 8.1 mph - N/A   Clear
2:35 PM 73.6 °F 53.1 °F 49% 29.94 in 10.0 mi North 5.8 mph - N/A   Clear
2:55 PM 73.9 °F 52.9 °F 48% 29.94 in 10.0 mi WNW 3.5 mph - N/A   Clear
2:56 PM 74.1 °F 53.1 °F 48% 29.94 in 10.0 mi Calm Calm - N/A   Clear
3:15 PM 75.0 °F 53.1 °F 46% 29.93 in 10.0 mi West 3.5 mph - N/A   Clear
3:19 PM 75.0 °F 52.7 °F 46% 29.93 in 10.0 mi WNW 3.5 mph - N/A   Clear
3:37 PM 75.0 °F 54.9 °F 49% 29.93 in 10.0 mi NW 3.5 mph - N/A   Clear
3:55 PM 74.5 °F 54.3 °F 49% 29.93 in 10.0 mi Calm Calm - N/A   Scattered Clouds
4:15 PM 74.7 °F 55.6 °F 51% 29.93 in 10.0 mi Calm Calm - N/A   Clear
4:16 PM 74.7 °F 55.4 °F 51% 29.93 in 10.0 mi Calm Calm - N/A   Clear
4:35 PM 75.4 °F 54.5 °F 48% 29.93 in 10.0 mi NW 3.5 mph - N/A   Clear
4:36 PM 75.4 °F 54.3 °F 48% 29.93 in 10.0 mi NW 4.6 mph - N/A   Clear
4:58 PM 75.7 °F 54.3 °F 47% 29.93 in 10.0 mi North 5.8 mph - N/A   Clear
5:16 PM 75.6 °F 53.2 °F 46% 29.93 in 10.0 mi NNW 6.9 mph - N/A   Clear
5:35 PM 75.2 °F 53.2 °F 46% 29.93 in 10.0 mi NNW 4.6 mph - N/A   Clear
5:36 PM 75.4 °F 53.6 °F 47% 29.93 in 10.0 mi North 3.5 mph - N/A   Clear
5:55 PM 74.7 °F 51.1 °F 44% 29.93 in 10.0 mi North 5.8 mph - N/A   Clear
5:56 PM 74.7 °F 51.1 °F 44% 29.93 in 10.0 mi North 5.8 mph - N/A   Clear
6:18 PM 73.9 °F 54.0 °F 50% 29.93 in 10.0 mi NNW 4.6 mph - N/A   Clear
6:36 PM 73.6 °F 54.9 °F 52% 29.93 in 10.0 mi North 3.5 mph - N/A   Clear
6:55 PM 72.1 °F 56.1 °F 57% 29.92 in 10.0 mi Calm Calm - N/A   Clear
6:56 PM 72.0 °F 57.0 °F 59% 29.92 in 10.0 mi Calm Calm - N/A   Clear
7:15 PM 68.9 °F 60.1 °F 73% 29.92 in 10.0 mi Calm Calm - N/A   Clear
7:16 PM 68.9 °F 60.3 °F 74% 29.92 in 10.0 mi Calm Calm - N/A   Clear
7:38 PM 67.1 °F 59.4 °F 76% 29.92 in 10.0 mi Calm Calm - N/A   Clear
7:55 PM 65.5 °F 58.5 °F 78% 29.92 in 10.0 mi Calm Calm - N/A   Clear
8:15 PM 63.0 °F 57.6 °F 82% 29.92 in 10.0 mi Calm Calm - N/A   Clear
8:16 PM 62.8 °F 57.4 °F 82% 29.92 in 10.0 mi SSE 3.5 mph - N/A   Clear
8:35 PM 62.6 °F 56.8 °F 81% 29.92 in 10.0 mi Calm Calm - N/A   Clear
8:59 PM 61.7 °F 55.2 °F 79% 29.94 in 10.0 mi Calm Calm - N/A   Clear
9:17 PM 60.6 °F 55.8 °F 84% 29.94 in 10.0 mi Calm Calm - N/A   Clear
9:36 PM 60.8 °F 55.4 °F 82% 29.95 in 10.0 mi Calm Calm - N/A   Clear
9:55 PM 60.6 °F 55.6 °F 83% 29.95 in 10.0 mi Calm Calm - N/A   Clear
9:56 PM 60.4 °F 55.4 °F 83% 29.95 in 10.0 mi Calm Calm - N/A   Clear
10:15 PM 60.4 °F 55.0 °F 82% 29.95 in 10.0 mi Calm Calm - N/A   Clear
10:19 PM 60.4 °F 55.0 °F 82% 29.95 in 10.0 mi South 3.5 mph - N/A   Clear
10:37 PM 60.3 °F 54.7 °F 82% 29.95 in 10.0 mi Calm Calm - N/A   Scattered Clouds
10:55 PM 60.6 °F 54.9 °F 81% 29.95 in 10.0 mi SE 3.5 mph - N/A   Mostly Cloudy
11:16 PM 60.3 °F 55.4 °F 84% 29.95 in 10.0 mi Calm Calm - N/A   Scattered Clouds
11:35 PM 59.7 °F 55.6 °F 86% 29.95 in 10.0 mi Calm Calm - N/A   Clear
11:36 PM 59.7 °F 55.6 °F 86% 29.95 in 10.0 mi Calm Calm - N/A   Clear
11:58 PM 59.5 °F 55.2 °F 86% 29.96 in 10.0 mi Calm Calm - N/A   Clear